Weather in Punta de Mita

Mexico     20°46′36″N   105°30′49″W
temp.,
°C
wind,
m/s
gust,
m/s
humid.,
%
clouds,
%
prec.,
mm/h
press.,
hPa
HPBL,
m
14 april, wed
wed1400:00+22ene33794 0.0 1013288
03:00+22ene22820 0.0 1012212
06:00+22nne227921 0.0 1012372
09:00+23ne22710 0.0 1014422
12:00+24nw326953 0.0 1014456
15:00+25wnw44664 0.0 1012512
18:00+25nw33661 0.0 1011496
21:00+23ene22720 0.0 1013260
15 april, thu
thu1500:00+23nne33720 0.0 1013342
03:00+22ene33770 0.0 1012227
06:00+21ene22750 0.0 1011200
09:00+24ne33630 0.0 1013412
12:00+25nw55641 0.0 1012509
15:00+25nw44621 0.0 1011541
18:00+25nw336213 0.0 1010474
21:00+24n336611 0.0 1012432
16 april, fri
fri1600:00+23nne23690 0.0 1012271
03:00+22ene32730 0.0 1010201
06:00+22ne23682 0.0 1009201
09:00+24ne11545 0.0 1010260
12:00+25nw44642 0.0 1010558
15:00+25wnw44641 0.0 1009579
18:00+25nw22621 0.0 1009467
21:00+24nnw22670 0.0 1011389
17 april, sat
sat1700:00+23nne23705 0.0 1011423
03:00+21e337786 0.0 1009222
06:00+21nne227238 0.0 1009192
09:00+23ene116214 0.0 1011254
12:00+25wnw43644 0.0 1010518
15:00+25wnw44614 0.0 1009563
18:00+25wnw226168 0.0 1009514
21:00+24nnw01645 0.0 1011453
18 april, sun
sun1800:00+23ene226917 0.0 1012267
03:00+21e33797 0.0 1011182
06:00+21e2274100 0.0 1011148
09:00+23se11655 0.0 1013202
12:00+24w446916 0.0 1012425
15:00+25wsw556918 0.0 1011657
18:00+24w33650 0.0 1011723
21:00+23sse11662 0.0 1012507